(503022) = 2015 FJ121

Discovered at Kitt Peak on 2010-03-12 by Spacewatch.

Orbit

Orbit type: Main Belt

Note: WebGL enabled browser required.

epoch2023-09-13.0
epoch JD2460200.5
perihelion date2020-11-11.29587
perihelion JD2459164.79587
argument of perihelion (°)163.35903
ascending node (°)17.06434
inclination (°)8.39852
eccentricity0.0796583
perihelion distance (AU)2.8615816
Tisserand w.r.t. Jupiter3.2
ΔV w.r.t. Earth (km/sec)10.8
semimajor axis (AU)3.1092600
mean anomaly (°)186.18898
mean daily motion (°/day)0.17977040
aphelion distance (AU)3.357
period (years)5.48
P-vector [x]-0.99907152
P-vector [y]-0.02611087
P-vector [z]0.03426846
Q-vector [x]0.00437412
Q-vector [y]-0.85278003
Q-vector [z]-0.52225194
absolute magnitude16.44
phase slope0.15
uncertainty0
referenceMPO 780358
observations used188
oppositions10
arc length (days)8954
first opposition used1999
last opposition used2023
residual rms (arc-secs)0.76
perturbers coarse indicatorM-v
perturbers precise indicator003Ek
first observation date used1999-04-11.0
last observation date used2023-10-16.0
computer nameMPCLINUX
JD of orbit computation2458020.349704
perihelion JD uncertainty (days)2.1194E-04
argument of perihelion uncertainty (°)5.1710E-05
ascending node uncertainty (°)3.4597E-05
inclination uncertainty (°)7.9685E-06
eccentricity uncertainty 9.6488E-08
perihelion distance uncertainty (AU)3.1028E-07
Minimum Orbit Intersection Distances (in AU)
for orbit epoch: 2460200.5, reference: E2023-U42
Mercury2.4516
Venus2.14158
Earth1.8639
Mars1.20672
Jupiter1.59763
Saturn5.92755
Uranus15.5832
Neptune26.5024

Observations

191 total observations over interval: 1999 04 11.34453 – 2023 10 16.362065
These data are available for download (format description).

Date (UT) J2000 RA J2000 Dec Magn Location Ref
1999 04 11.34453 13 24 30.95 -10 08 04.3 21.0 V 691 – Steward Observatory, Kitt Peak-Spacewatch MPS 815688
1999 04 11.36552 13 24 29.86 -10 08 02.1 20.6 V 691 – Steward Observatory, Kitt Peak-Spacewatch MPS 815688
1999 04 11.38685 13 24 28.76 -10 07 59.4 20.9 V 691 – Steward Observatory, Kitt Peak-Spacewatch MPS 815688
2004 02 18.42357 10 54 00.75 +16 18 22.5 20.9 V 691 – Steward Observatory, Kitt Peak-Spacewatch MPS 815688
2004 02 18.47582 10 53 58.15 +16 18 33.5 21.4 V 691 – Steward Observatory, Kitt Peak-Spacewatch MPS 815688
2004 02 18.52091 10 53 55.87 +16 18 41.9 21.5 V 691 – Steward Observatory, Kitt Peak-Spacewatch MPS 815688
2010 03 12.39258 14 10 49.59 -14 04 00.5 21.4 V 691 – Steward Observatory, Kitt Peak-Spacewatch MPS 815688
2010 03 12.41029 14 10 49.21 -14 04 01.7 21.2 V 691 – Steward Observatory, Kitt Peak-Spacewatch MPS 815688
2010 03 12.43493 14 10 48.75 -14 04 04.3 21.2 V 691 – Steward Observatory, Kitt Peak-Spacewatch MPS 815688
2010 04 15.35676 13 49 01.63 -13 55 40.3 20.0 V G96 – Mt. Lemmon Survey MPS 615190
2010 04 15.36383 13 49 01.23 -13 55 39.3 20.3 V G96 – Mt. Lemmon Survey MPS 615190
2010 04 15.37090 13 49 00.87 -13 55 38.7 20.3 V G96 – Mt. Lemmon Survey MPS 615190
2010 04 15.37800 13 49 00.51 -13 55 38.1 20.3 V G96 – Mt. Lemmon Survey MPS 615190
2010 04 17.19651 13 47 26.93 -13 52 36.2   691 – Steward Observatory, Kitt Peak-Spacewatch MPS 615190
2010 04 17.21419 13 47 26.02 -13 52 34.9   691 – Steward Observatory, Kitt Peak-Spacewatch MPS 615190
2010 04 17.23189 13 47 25.09 -13 52 33.4   691 – Steward Observatory, Kitt Peak-Spacewatch MPS 615190
2010 05 07.19270 13 31 11.92 -13 15 22.7 20.9 V G96 – Mt. Lemmon Survey MPS 815688
2010 05 07.19866 13 31 11.67 -13 15 22.2 20.8 V G96 – Mt. Lemmon Survey MPS 815688
2010 05 07.20460 13 31 11.35 -13 15 22.1 20.6 V G96 – Mt. Lemmon Survey MPS 815688
2010 05 07.21056 13 31 11.13 -13 15 20.5 20.6 V G96 – Mt. Lemmon Survey MPS 815688
2010 05 07.25845 13 31 09.04 -13 15 16.2 20.1 V G96 – Mt. Lemmon Survey MPS 815688
2010 05 07.26133 13 31 08.90 -13 15 15.5 20.3 V G96 – Mt. Lemmon Survey MPS 815688
2010 05 07.26421 13 31 08.76 -13 15 15.1 20.5 V G96 – Mt. Lemmon Survey MPS 815688
2010 05 07.26708 13 31 08.65 -13 15 14.8 20.9 V G96 – Mt. Lemmon Survey MPS 815688
2010 05 07.30036 13 31 07.17 -13 15 10.9 20.4 V G96 – Mt. Lemmon Survey MPS 815688
2010 05 07.30369 13 31 07.06 -13 15 10.8 20.9 V G96 – Mt. Lemmon Survey MPS 815688
2010 05 07.30705 13 31 06.88 -13 15 10.7 20.8 V G96 – Mt. Lemmon Survey MPS 815688
2010 05 07.31042 13 31 06.74 -13 15 10.1 21.1 V G96 – Mt. Lemmon Survey MPS 815688
2012 10 14.35438 00 12 25.02 -00 44 16.2 22.3 V G96 – Mt. Lemmon Survey MPS 815688
2012 10 14.36077 00 12 24.73 -00 44 17.3 21.8 V G96 – Mt. Lemmon Survey MPS 815688
2012 10 14.36727 00 12 24.48 -00 44 17.8 21.5 V G96 – Mt. Lemmon Survey MPS 815688
2012 10 14.37378 00 12 24.19 -00 44 19.6 21.6 V G96 – Mt. Lemmon Survey MPS 815688
2015 01 27.61057 11 33 06.681 +11 18 38.57 21.0 w F51 – Pan-STARRS 1, Haleakala MPS 612706
2015 01 27.62275 11 33 06.467 +11 18 39.96 20.9 w F51 – Pan-STARRS 1, Haleakala MPS 612706
2015 01 27.63488 11 33 06.257 +11 18 41.37 20.8 w F51 – Pan-STARRS 1, Haleakala MPS 612706
2015 01 27.64697 11 33 06.035 +11 18 42.68 20.8 w F51 – Pan-STARRS 1, Haleakala MPS 612706
2015 01 29.61213 11 32 31.755 +11 22 40.07 20.9 w F51 – Pan-STARRS 1, Haleakala MPS 612706
2015 01 29.62428 11 32 31.491 +11 22 41.76 20.9 w F51 – Pan-STARRS 1, Haleakala MPS 612706
2015 01 29.63642 11 32 31.256 +11 22 43.18 21.0 w F51 – Pan-STARRS 1, Haleakala MPS 612706
2015 01 29.64856 11 32 31.000 +11 22 44.82 20.9 w F51 – Pan-STARRS 1, Haleakala MPS 612706
2015 02 08.40770 11 28 20.15 +11 47 26.9 20.6 V 691 – Steward Observatory, Kitt Peak-Spacewatch MPS 815688
2015 02 08.43402 11 28 19.30 +11 47 30.8 20.5 V 691 – Steward Observatory, Kitt Peak-Spacewatch MPS 815688
2015 02 08.46447 11 28 18.23 +11 47 37.3 20.6 V 691 – Steward Observatory, Kitt Peak-Spacewatch MPS 815688
2015 02 17.53830 11 22 36.365 +12 15 51.51 20.4 w F51 – Pan-STARRS 1, Haleakala MPS 815688
2015 02 17.54999 11 22 35.845 +12 15 53.71 20.4 w F51 – Pan-STARRS 1, Haleakala MPS 815688
2015 02 17.56183 11 22 35.321 +12 15 56.09 20.5 w F51 – Pan-STARRS 1, Haleakala MPS 815688
2015 02 17.57374 11 22 34.794 +12 15 58.27 20.4 w F51 – Pan-STARRS 1, Haleakala MPS 815688
2015 02 25.31212 11 16 40.18 +12 41 06.2 20.5 V 691 – Steward Observatory, Kitt Peak-Spacewatch MPS 815688
2015 02 25.32645 11 16 39.49 +12 41 09.0 20.2 V 691 – Steward Observatory, Kitt Peak-Spacewatch MPS 815688
2015 02 25.34079 11 16 38.74 +12 41 11.5 20.0 V 691 – Steward Observatory, Kitt Peak-Spacewatch MPS 815688
2015 03 11.28731 11 04 52.03 +13 20 14.9 20.1 V G96 – Mt. Lemmon Survey MPS 815688
2015 03 11.29461 11 04 51.65 +13 20 15.9 20.2 V G96 – Mt. Lemmon Survey MPS 815688
2015 03 11.30191 11 04 51.26 +13 20 17.2 20.2 V G96 – Mt. Lemmon Survey MPS 815688
2015 03 11.30922 11 04 50.88 +13 20 18.2 20.1 V G96 – Mt. Lemmon Survey MPS 815688
2015 03 21.64762 10 56 26.81 +13 37 37.1 19.9 R D29 – Purple Mountain Observatory, XuYi Station MPS 595459
2015 03 21.66261 10 56 26.15 +13 37 38.9 20.5 R D29 – Purple Mountain Observatory, XuYi Station MPS 595459
2015 03 21.67760 10 56 25.41 +13 37 40.1 20.9 R D29 – Purple Mountain Observatory, XuYi Station MPS 595459
2015 03 24.47592 10 54 21.140 +13 40 02.97 20.5 w F51 – Pan-STARRS 1, Haleakala MPS 595459
2015 03 24.48743 10 54 20.623 +13 40 03.41 20.5 w F51 – Pan-STARRS 1, Haleakala MPS 595459
2015 03 24.49893 10 54 20.117 +13 40 03.81 20.4 w F51 – Pan-STARRS 1, Haleakala MPS 595459
2015 03 24.51036 10 54 19.612 +13 40 04.26 20.6 w F51 – Pan-STARRS 1, Haleakala MPS 595459
2015 03 25.31424 10 53 45.42 +13 40 32.5 20.3 r G45 – Space Surveillance Telescope, Atom Site MPS 598597
2015 03 25.32287 10 53 44.97 +13 40 32.4 20.8 r G45 – Space Surveillance Telescope, Atom Site MPS 598597
2015 03 25.32974 10 53 44.71 +13 40 32.0 20.5 r G45 – Space Surveillance Telescope, Atom Site MPS 598597
2015 03 25.33809 10 53 44.35 +13 40 33.3 20.3 r G45 – Space Surveillance Telescope, Atom Site MPS 598597
2015 03 25.34517 10 53 43.98 +13 40 33.1 20.4 r G45 – Space Surveillance Telescope, Atom Site MPS 598597
2015 03 25.48997 10 53 37.878 +13 40 38.59 20.4 w F51 – Pan-STARRS 1, Haleakala MPS 815688
2015 03 25.50151 10 53 37.372 +13 40 38.89 20.5 w F51 – Pan-STARRS 1, Haleakala MPS 815688
2015 03 25.51298 10 53 36.876 +13 40 39.26 20.4 w F51 – Pan-STARRS 1, Haleakala MPS 815688
2015 03 25.52445 10 53 36.379 +13 40 39.57 20.7 w F51 – Pan-STARRS 1, Haleakala MPS 815688
2015 04 10.25291 10 44 55.391 +13 31 15.94 20.8 w F51 – Pan-STARRS 1, Haleakala MPS 815688
2015 04 10.26486 10 44 55.093 +13 31 14.88 20.7 w F51 – Pan-STARRS 1, Haleakala MPS 815688
2015 04 10.27691 10 44 54.798 +13 31 13.63 20.9 w F51 – Pan-STARRS 1, Haleakala MPS 815688
2015 04 10.28908 10 44 54.497 +13 31 12.45 20.9 w F51 – Pan-STARRS 1, Haleakala MPS 815688
2017 08 01.48414 22 54 02.375 -16 16 20.87 21.3 w F51 – Pan-STARRS 1, Haleakala MPS 807990
2017 08 01.49547 22 54 01.997 -16 16 23.19 21.3 w F51 – Pan-STARRS 1, Haleakala MPS 807990
2017 08 01.51815 22 54 01.222 -16 16 27.80 21.3 w F51 – Pan-STARRS 1, Haleakala MPS 807990
2017 09 16.36359 22 20 16.945 -18 28 38.02 21.1 w F51 – Pan-STARRS 1, Haleakala MPS 817098
2017 09 16.37548 22 20 16.420 -18 28 38.81 21.1 w F51 – Pan-STARRS 1, Haleakala MPS 817098
2017 09 16.38734 22 20 15.921 -18 28 39.68 21.1 w F51 – Pan-STARRS 1, Haleakala MPS 817098
2017 09 16.39922 22 20 15.407 -18 28 40.53 21.1 w F51 – Pan-STARRS 1, Haleakala MPS 817098
2017 09 23.34649 22 15 48.390 -18 33 01.59 21.1 w F51 – Pan-STARRS 1, Haleakala MPS 819231
2017 09 23.35747 22 15 47.982 -18 33 01.75 21.5 w F51 – Pan-STARRS 1, Haleakala MPS 819231
2017 09 23.36846 22 15 47.580 -18 33 01.81 21.4 w F51 – Pan-STARRS 1, Haleakala MPS 819231
2017 09 23.37955 22 15 47.170 -18 33 01.94 21.4 w F51 – Pan-STARRS 1, Haleakala MPS 819231
2019 10 27.59180 08 25 02.998 +28 29 37.30 22.1 w F51 – Pan-STARRS 1, Haleakala MPS 1074955
2019 10 27.61626 08 25 04.206 +28 29 37.68 21.8 w F51 – Pan-STARRS 1, Haleakala MPS 1074955
2019 10 27.62858 08 25 04.823 +28 29 38.14 21.8 w F51 – Pan-STARRS 1, Haleakala MPS 1074955
